1491087600.34,7710,14.19,73754.8,-1.99,-33.03,-33.37,0,*67
1491087601.59,7711,14.13,73756.8,-1.99,-33.37,-33.61,0,*62
1491087602.86,7712,14.13,73756.5,-1.99,-33.27,-33.61,0,*60
1491087604.08,7713,14.13,73752.3,-2.01,-33.37,-33.61,0,*62
1491087605.31,7714,14.13,73748.5,-2.01,-33.03,-33.27,0,*60
1491087606.57,7715,14.19,73752.5,-1.99,-32.69,-32.85,0,*67
1491087607.82,7716,14.19,73754.5,-1.99,-32.85,-33.21,0,*69
1491087609.1,7717,14.13,73756.5,-1.99,-33.09,-33.43,0,*69
1491087610.32,7718,14.13,73760.0,-2.01,-33.37,-33.61,0,*69
1491087611.57,7719,14.13,73756.3,-2.01,-33.27,-33.61,0,*69
1491087612.82,7720,14.13,73760.0,-1.99,-33.21,-33.43,0,*67
1491087614.08,7721,14.13,73760.3,-1.99,-33.09,-33.37,0,*6F
1491087615.3,7722,14.13,73762.5,-2.01,-33.21,-33.61,0,*67
1491087616.54,7723,14.13,73760.5,-2.01,-33.27,-33.61,0,*60
1491087617.74,7724,14.13,73760.8,-2.01,-33.21,-33.55,0,*66
1491087618.96,7725,14.13,73766.5,-2.01,-33.09,-33.55,0,*6D
1491087620.18,7726,14.13,73768.3,-2.01,-33.37,-33.61,0,*64
1491087621.41,7727,14.13,73764.3,-2.01,-33.37,-33.73,0,*66
1491087622.64,7728,14.13,73764.3,-2.05,-33.31,-33.67,0,*6E
1491087623.9,7729,14.13,73770.0,-2.07,-33.31,-33.67,0,*6D
1491087625.16,7730,14.13,73768.8,-2.07,-33.31,-33.67,0,*65
1491087626.38,7731,14.13,73768.8,-2.05,-33.43,-33.83,0,*69
1491087627.65,7732,14.13,73768.5,-2.07,-33.27,-33.61,0,*66
1491087628.85,7733,14.13,73768.8,-2.05,-33.15,-33.67,0,*62
1491087630.11,7734,14.13,73774.3,-2.05,-33.09,-33.43,0,*6E
1491087631.4,7735,14.13,73772.8,-2.07,-33.09,-33.43,0,*6D
1491087632.68,7736,14.13,73772.5,-2.07,-33.09,-33.49,0,*64
1491087633.9,7737,14.19,73780.5,-2.05,-33.15,-33.61,0,*60
1491087635.18,7738,14.13,73774.8,-2.07,-33.09,-33.43,0,*60
1491087636.44,7739,14.13,73768.0,-2.07,-33.15,-33.31,0,*69
1491087637.71,7740,14.13,73772.3,-2.07,-33.09,-33.49,0,*65
1491087639.0,7741,14.13,73774.5,-2.07,-33.09,-33.43,0,*6E
1491087640.26,7742,14.13,73774.0,-2.07,-33.15,-33.43,0,*60
1491087641.49,7743,14.13,73778.0,-2.05,-33.31,-33.67,0,*63
1491087642.76,7744,14.13,73776.5,-2.07,-33.31,-33.61,0,*60
1491087643.96,7745,14.13,73772.8,-2.09,-33.15,-33.37,0,*6A
1491087645.18,7746,14.13,73774.5,-2.09,-33.15,-33.31,0,*6F
1491087646.46,7747,14.13,73778.3,-2.07,-33.09,-33.49,0,*62
1491087647.74,7748,14.19,73780.5,-2.07,-33.27,-33.61,0,*6B
1491087648.93,7749,14.13,73782.0,-2.09,-33.15,-33.67,0,*63
1491087650.18,7750,14.13,73776.5,-2.07,-33.15,-33.49,0,*69
1491087651.46,7751,14.13,73774.0,-2.07,-33.27,-33.61,0,*63
1491087652.72,7752,14.13,73772.0,-2.05,-33.09,-33.43,0,*6E
1491087654.0,7753,14.13,73778.3,-2.07,-33.09,-33.27,0,*6F
1491087655.25,7754,14.13,73778.8,-2.07,-32.97,-33.15,0,*6F
1491087656.53,7755,14.13,73778.3,-2.07,-32.75,-32.97,0,*69
1491087657.78,7756,14.13,73772.3,-2.09,-32.79,-32.97,0,*68
1491087658.98,7757,14.13,73764.8,-2.09,-32.39,-32.57,0,*61
1491087660.23,7758,14.13,73766.5,-2.09,-32.63,-32.79,0,*6D
1491087661.48,7759,14.13,73764.8,-2.07,-32.51,-32.63,0,*68
1491087662.74,7760,14.13,73760.3,-2.07,-32.51,-32.75,0,*65
1491087664.02,7761,14.13,73750.5,-2.07,-32.63,-32.79,0,*69
1491087665.31,7762,14.13,73750.0,-2.07,-32.63,-32.79,0,*6A
1491087666.54,7763,14.13,73744.3,-2.05,-32.57,-32.79,0,*6E
1491087667.79,7764,14.13,73744.0,-2.05,-32.63,-32.79,0,*6E
1491087669.08,7765,14.13,73760.3,-2.07,-32.79,-33.09,0,*60
1491087670.27,7766,14.13,73760.0,-2.05,-32.91,-33.15,0,*6A
1491087671.56,7767,14.13,73746.8,-2.07,-32.75,-32.79,0,*68
1491087672.84,7768,14.13,73754.8,-2.07,-32.79,-32.97,0,*6B
1491087674.1,7769,14.13,73754.8,-2.05,-32.79,-33.09,0,*6E
1491087675.38,7770,14.13,73756.8,-2.07,-32.97,-33.27,0,*68
1491087676.66,7771,14.13,73748.3,-2.07,-32.79,-32.97,0,*63
1491087677.86,7772,14.13,73740.5,-2.05,-32.57,-32.91,0,*68
1491087679.09,7773,14.13,73746.5,-2.05,-32.63,-32.91,0,*6E
1491087680.38,7774,14.13,73748.8,-2.07,-32.63,-32.79,0,*6D
1491087681.61,7775,14.13,73748.0,-2.05,-32.75,-32.91,0,*6F
1491087682.86,7776,14.13,73750.0,-2.05,-32.63,-32.79,0,*6D
1491087684.12,7777,14.13,73756.0,-2.05,-32.79,-32.79,0,*67
1491087685.38,7778,14.13,73756.0,-2.07,-32.51,-32.75,0,*6C
1491087686.62,7779,14.19,73758.0,-2.05,-32.51,-32.75,0,*6F
1491087687.85,7780,14.13,73752.0,-2.05,-32.51,-32.75,0,*69
1491087689.08,7781,14.13,73750.0,-2.05,-32.75,-32.91,0,*64
1491087690.31,7782,14.13,73756.3,-2.05,-32.79,-33.15,0,*66
1491087691.57,7783,14.13,73754.8,-2.05,-32.79,-33.09,0,*6A
1491087692.79,7784,14.13,73758.0,-2.05,-32.97,-33.15,0,*60
1491087694.04,7785,14.13,73760.0,-2.07,-32.91,-32.97,0,*6E
1491087695.24,7786,14.13,73762.3,-2.01,-33.03,-33.21,0,*6D
1491087696.49,7787,14.13,73762.5,-2.01,-33.09,-33.43,0,*62
1491087697.75,7788,14.13,73762.8,-2.05,-33.27,-33.31,0,*60
1491087699.0,7789,14.13,73764.3,-2.07,-33.15,-33.49,0,*6D
1491087700.28,7790,14.13,73764.0,-2.07,-33.09,-33.31,0,*67
1491087701.56,7791,14.13,73760.8,-2.07,-33.09,-33.31,0,*66
1491087702.81,7792,14.13,73758.3,-2.07,-33.15,-33.31,0,*68
1491087704.1,7793,14.13,73762.0,-2.07,-33.09,-33.09,0,*6F
1491087705.35,7794,14.13,73756.8,-2.07,-32.97,-33.15,0,*63
1491087706.63,7795,14.13,73762.8,-2.07,-32.79,-33.09,0,*6F
1491087707.89,7796,14.13,73762.0,-2.07,-32.79,-33.15,0,*61
1491087709.14,7797,14.13,73766.0,-2.11,-33.03,-33.31,0,*6D
1491087710.36,7798,14.13,73760.3,-2.09,-33.03,-33.31,0,*6B
1491087711.59,7799,14.13,73762.3,-2.09,-33.15,-33.31,0,*6D
1491087712.81,7800,14.13,73764.8,-2.09,-32.97,-33.15,0,*6F
1491087714.05,7801,14.13,73762.8,-2.09,-32.85,-32.97,0,*66
1491087715.31,7802,14.13,73756.0,-2.07,-32.79,-32.91,0,*6E
1491087716.54,7803,14.13,73764.3,-2.09,-33.15,-33.31,0,*61
1491087717.78,7804,14.13,73764.0,-2.09,-32.97,-33.31,0,*6D
1491087719.04,7805,14.13,73758.3,-2.07,-32.75,-32.91,0,*65
1491087720.27,7806,14.13,73764.8,-2.09,-32.85,-33.15,0,*6A
1491087721.49,7807,14.13,73766.0,-2.09,-32.97,-33.15,0,*68
1491087722.74,7808,14.13,73760.8,-2.09,-32.63,-32.79,0,*67
1491087723.99,7809,14.13,73762.0,-2.09,-32.63,-32.79,0,*66
1491087725.22,7810,14.13,73766.3,-2.09,-32.57,-32.79,0,*69
1491087726.45,7811,14.13,73764.0,-2.09,-32.39,-32.45,0,*6F
1491087727.65,7812,14.13,73762.3,-2.09,-32.57,-32.69,0,*6A
1491087728.85,7813,14.13,73756.0,-2.09,-32.39,-32.57,0,*6E
1491087730.07,7814,14.13,73754.3,-2.07,-32.35,-32.39,0,*63
1491087731.33,7815,14.13,73754.8,-2.07,-32.07,-32.35,0,*6F
1491087732.59,7816,14.13,73754.0,-2.05,-32.07,-32.19,0,*60
1491087733.79,7817,14.13,73750.8,-2.05,-32.35,-32.39,0,*62
1491087735.05,7818,14.13,73750.3,-2.07,-32.51,-32.75,0,*65
1491087736.34,7819,14.13,73752.3,-2.07,-32.75,-32.75,0,*62
1491087737.62,7820,14.13,73752.3,-2.07,-32.79,-32.79,0,*68
1491087738.88,7821,14.13,73758.5,-2.05,-32.79,-32.97,0,*6B
1491087740.16,7822,14.13,73758.8,-2.07,-32.75,-32.79,0,*66
1491087741.42,7823,14.13,73758.8,-2.05,-32.63,-32.79,0,*62
1491087742.68,7824,14.13,73760.5,-2.05,-32.75,-32.79,0,*62
1491087743.94,7825,14.13,73756.0,-2.07,-32.57,-32.75,0,*6D
1491087745.2,7826,14.13,73754.8,-2.07,-32.51,-32.75,0,*68
1491087746.44,7827,14.13,73750.0,-2.05,-32.57,-32.75,0,*6D
1491087747.63,7828,14.13,73748.8,-2.05,-32.35,-32.39,0,*6E
1491087748.89,7829,14.13,73746.5,-2.07,-32.51,-32.63,0,*60
1491087750.12,7830,14.13,73750.0,-2.05,-32.51,-32.75,0,*6D
1491087751.41,7831,14.13,73754.0,-2.07,-32.63,-32.75,0,*6F
1491087752.7,7832,14.13,73758.0,-2.07,-32.75,-32.75,0,*6B
1491087753.96,7833,14.13,73762.5,-2.07,-32.57,-32.75,0,*6A
1491087755.19,7834,14.13,73758.8,-2.05,-32.57,-32.75,0,*6F
1491087756.39,7835,14.13,73758.5,-2.05,-32.35,-32.51,0,*6C
1491087757.62,7836,14.13,73758.8,-2.07,-32.23,-32.39,0,*64
1491087758.86,7837,14.13,73748.3,-2.05,-32.19,-32.39,0,*6E
1491087760.08,7838,14.13,73750.3,-2.05,-32.51,-32.63,0,*62
1491087761.31,7839,14.13,73748.3,-2.05,-32.51,-32.63,0,*63
1491087762.57,7840,14.13,73750.3,-2.07,-32.51,-32.75,0,*68
1491087763.8,7841,14.13,73750.3,-2.05,-32.63,-32.91,0,*60
1491087765.06,7842,14.13,73754.5,-2.07,-32.75,-32.91,0,*66
1491087766.31,7843,14.13,73752.5,-2.05,-32.75,-32.97,0,*63
1491087767.57,7844,14.13,73754.8,-2.05,-32.79,-32.97,0,*68
1491087768.79,7845,14.13,73756.8,-2.05,-32.63,-32.91,0,*64
1491087770.03,7846,14.13,73754.5,-2.05,-32.57,-32.79,0,*66
1491087771.26,7847,14.13,73754.3,-2.05,-32.51,-32.75,0,*6D
1491087772.52,7848,14.13,73754.8,-2.05,-32.63,-32.75,0,*63
1491087773.75,7849,14.13,73756.8,-2.05,-32.57,-32.79,0,*69
1491087775.01,7850,14.13,73760.5,-2.07,-32.63,-32.91,0,*62
1491087776.28,7851,14.13,73758.0,-2.07,-32.63,-32.97,0,*65
1491087777.51,7852,14.13,73756.5,-2.05,-32.63,-32.91,0,*62
1491087778.77,7853,14.13,73766.5,-2.05,-32.75,-32.97,0,*62
1491087780.0,7854,14.13,73760.3,-2.05,-32.79,-33.15,0,*62
1491087781.23,7855,14.13,73756.3,-2.05,-32.79,-33.15,0,*63
1491087782.46,7856,14.13,73758.5,-2.05,-32.79,-33.15,0,*60
1491087783.68,7857,14.13,73760.8,-2.05,-32.97,-33.15,0,*61
1491087784.96,7858,14.13,73758.0,-2.07,-32.97,-33.31,0,*6A
1491087786.21,7859,14.13,73760.3,-2.05,-32.97,-33.31,0,*69
1491087787.46,7860,14.13,73770.0,-2.05,-33.09,-33.49,0,*6A
1491087788.75,7861,14.13,73762.3,-2.07,-33.09,-33.43,0,*63
1491087790.01,7862,14.13,73760.8,-2.05,-33.09,-33.43,0,*62
1491087791.26,7863,14.13,73764.3,-2.07,-33.15,-33.49,0,*66
1491087792.51,7864,14.13,73766.5,-2.07,-33.15,-33.49,0,*61
1491087793.76,7865,14.13,73762.0,-2.07,-33.15,-33.43,0,*6A
1491087794.99,7866,14.13,73762.3,-2.09,-33.15,-33.31,0,*62
1491087796.18,7867,14.13,73764.0,-2.09,-33.15,-33.37,0,*65
1491087797.41,7868,14.13,73762.0,-2.09,-33.03,-33.31,0,*6B
1491087798.63,7869,14.13,73760.3,-2.09,-33.21,-33.49,0,*65
1491087799.85,7870,14.13,73756.5,-2.09,-33.15,-33.49,0,*6A
1491087801.08,7871,14.13,73744.5,-2.11,-33.15,-33.37,0,*6B
1491087802.33,7872,14.13,73754.5,-2.11,-33.15,-33.49,0,*61
1491087803.55,7873,14.13,73746.5,-2.09,-32.85,-33.03,0,*6F
1491087804.78,7874,14.13,73748.3,-2.09,-32.69,-32.97,0,*66
1491087806.0,7875,14.13,73746.5,-2.09,-32.85,-33.03,0,*69
1491087807.23,7876,14.13,73750.8,-2.09,-32.79,-33.03,0,*69
1491087808.49,7877,14.13,73750.8,-2.11,-32.69,-32.85,0,*6F
1491087809.75,7878,14.13,73750.3,-2.09,-32.63,-32.85,0,*63
1491087811.0,7879,14.13,73754.3,-2.07,-32.63,-32.91,0,*69
1491087812.29,7880,14.13,73740.8,-2.07,-32.79,-33.09,0,*64
1491087813.51,7881,14.13,73766.0,-2.09,-32.79,-33.15,0,*66
1491087814.74,7882,14.13,73740.3,-2.09,-32.69,-32.85,0,*6C
1491087815.97,7883,14.13,73738.3,-2.09,-32.45,-32.69,0,*61
1491087817.2,7884,14.13,73742.0,-2.09,-32.57,-32.79,0,*64
1491087818.45,7885,14.13,73730.8,-2.07,-32.35,-32.63,0,*64
1491087819.71,7886,14.13,73742.5,-2.07,-32.51,-32.75,0,*62
1491087820.97,7887,14.13,73748.3,-2.07,-32.75,-32.91,0,*6F
1491087822.19,7888,14.13,73748.8,-2.07,-32.35,-32.35,0,*6A
1491087823.42,7889,14.13,73750.5,-2.05,-32.51,-32.63,0,*68
1491087824.68,7890,14.13,73758.0,-2.07,-32.57,-32.79,0,*6F
1491087825.94,7891,14.13,73758.0,-2.07,-32.75,-32.91,0,*68
1491087827.15,7892,14.13,73752.3,-2.05,-32.39,-32.51,0,*6D
1491087828.38,7893,14.13,73752.8,-2.05,-32.39,-32.75,0,*6A
1491087829.64,7894,14.13,73766.5,-2.05,-32.63,-32.75,0,*62
1491087830.92,7895,14.13,73766.0,-2.07,-32.97,-33.27,0,*6C
1491087832.18,7896,14.13,73766.0,-2.05,-33.09,-33.43,0,*69
1491087833.44,7897,14.13,73764.0,-2.05,-33.09,-33.27,0,*6A
1491087834.67,7898,14.13,73752.8,-2.05,-32.57,-32.75,0,*69
1491087835.9,7899,14.13,73760.3,-2.05,-32.79,-32.91,0,*6E
1491087837.14,7900,14.13,73764.0,-2.05,-32.39,-32.75,0,*61
1491087838.37,7901,14.13,73766.3,-2.01,-32.51,-32.75,0,*6A
1491087839.65,7902,14.13,73766.5,-2.07,-32.97,-33.31,0,*64
1491087840.9,7903,14.13,73770.3,-2.05,-33.09,-33.49,0,*6E
1491087842.12,7904,14.13,73760.5,-2.07,-32.91,-33.15,0,*62
1491087843.41,7905,14.13,73762.5,-2.07,-33.09,-33.31,0,*65
1491087844.68,7906,14.13,73758.8,-2.07,-32.97,-33.09,0,*6B
1491087845.97,7907,14.13,73756.0,-2.07,-32.97,-33.27,0,*66
1491087847.25,7908,14.13,73756.8,-2.07,-33.09,-33.31,0,*68
1491087848.53,7909,14.13,73750.3,-2.07,-33.09,-33.27,0,*6E
1491087849.78,7910,14.13,73756.5,-2.07,-32.97,-33.15,0,*61
1491087851.07,7911,14.13,73758.5,-2.07,-33.09,-33.27,0,*67
1491087852.32,7912,14.13,73758.8,-2.07,-33.15,-33.49,0,*61
1491087853.6,7913,14.13,73752.8,-2.07,-33.09,-33.43,0,*67
1491087854.86,7914,14.13,73756.0,-2.07,-32.91,-33.09,0,*6E
1491087856.14,7915,14.13,73756.0,-2.07,-32.75,-32.97,0,*63
1491087857.4,7916,14.13,73756.0,-2.07,-32.75,-32.91,0,*66
1491087858.62,7917,14.13,73762.5,-2.07,-32.91,-33.15,0,*60
1491087859.9,7918,14.13,73760.5,-2.07,-32.97,-33.43,0,*6A
1491087861.19,7919,14.13,73760.8,-2.07,-33.09,-33.43,0,*6D
1491087862.44,7920,14.13,73764.3,-2.07,-33.15,-33.43,0,*6A
1491087863.66,7921,14.13,73758.8,-2.09,-33.15,-33.49,0,*6F
1491087864.86,7922,14.13,73758.3,-2.09,-33.15,-33.37,0,*65
1491087866.06,7923,14.13,73762.8,-2.09,-33.15,-33.37,0,*64
1491087867.31,7924,14.13,73762.5,-2.11,-33.15,-33.31,0,*6C
1491087868.54,7925,14.13,73762.8,-2.09,-33.03,-33.31,0,*63
1491087869.73,7926,14.13,73754.0,-2.09,-33.03,-33.21,0,*61
1491087870.93,7927,14.13,73752.8,-2.09,-33.03,-33.21,0,*60
1491087872.19,7928,14.13,73758.8,-2.11,-33.03,-33.31,0,*67
1491087873.41,7929,14.13,73764.0,-2.09,-33.21,-33.49,0,*60
1491087874.64,7930,14.13,73758.8,-2.11,-33.21,-33.37,0,*68
1491087875.86,7931,14.13,73756.5,-2.09,-33.15,-33.49,0,*6E
1491087877.06,7932,14.13,73766.0,-2.09,-33.21,-33.67,0,*66
1491087878.28,7933,14.13,73774.8,-2.09,-33.31,-33.55,0,*67
1491087879.56,7934,14.13,73756.8,-2.11,-32.63,-32.79,0,*60
1491087880.8,7935,14.13,73744.8,-2.11,-32.57,-32.69,0,*67
1491087882.0,7936,14.13,73750.0,-2.09,-32.69,-33.03,0,*6D
1491087883.25,7937,14.13,73742.3,-2.11,-32.79,-33.03,0,*64
1491087884.51,7938,14.13,73746.8,-2.11,-32.85,-33.15,0,*6F
1491087885.76,7939,14.13,73754.0,-2.11,-32.97,-33.21,0,*6A
1491087887.01,7940,14.13,73736.3,-2.11,-32.85,-33.03,0,*67
1491087888.24,7941,14.13,73742.8,-2.09,-32.69,-32.79,0,*61
1491087889.49,7942,14.13,73734.3,-2.11,-32.97,-33.21,0,*66
1491087890.76,7943,14.13,73734.5,-2.11,-32.85,-32.97,0,*68
1491087892.01,7944,14.13,73738.5,-2.11,-32.97,-33.21,0,*60
1491087893.29,7945,14.13,73736.5,-2.11,-32.79,-32.97,0,*6D
1491087894.54,7946,14.13,73736.8,-2.11,-32.97,-33.03,0,*62
1491087895.82,7947,14.13,73734.3,-2.11,-32.63,-32.79,0,*64
1491087897.04,7948,14.13,73734.5,-2.09,-32.69,-32.97,0,*68
1491087898.27,7949,14.13,73740.5,-2.09,-32.97,-33.03,0,*64
1491087899.47,7950,14.13,73744.8,-2.09,-33.03,-33.37,0,*67
1491087900.67,7951,14.13,73744.8,-2.09,-33.03,-33.21,0,*61
1491087901.92,7952,14.13,73746.5,-2.11,-33.03,-33.31,0,*6A
1491087903.17,7953,14.13,73744.8,-2.11,-32.97,-33.21,0,*66
1491087904.39,7954,14.13,73750.5,-2.11,-33.03,-33.15,0,*6A
1491087905.64,7955,14.13,73746.5,-2.11,-32.97,-33.15,0,*67
1491087906.87,7956,14.13,73748.3,-2.11,-33.03,-33.15,0,*68
1491087908.12,7957,14.13,73746.3,-2.11,-33.03,-33.31,0,*6F
1491087909.37,7958,14.13,73746.8,-2.11,-33.03,-33.31,0,*60
1491087910.57,7959,14.13,73752.8,-2.09,-33.03,-33.21,0,*69
1491087911.77,7960,14.13,73760.5,-2.09,-33.03,-33.21,0,*63
1491087913.0,7961,14.13,73752.8,-2.11,-33.03,-33.37,0,*6C
1491087914.22,7962,14.13,73756.8,-2.11,-33.15,-33.37,0,*68
1491087915.42,7963,14.13,73754.8,-2.09,-33.03,-33.21,0,*60
1491087916.67,7964,14.13,73746.8,-2.11,-32.97,-33.15,0,*65
1491087917.92,7965,14.13,73750.3,-2.11,-32.97,-33.03,0,*63
1491087919.12,7966,14.13,73746.3,-2.09,-33.03,-33.21,0,*65
1491087920.36,7967,14.13,73752.8,-2.11,-32.97,-33.15,0,*66
1491087921.62,7968,14.13,73754.8,-2.11,-32.85,-33.15,0,*6A
1491087922.87,7969,14.13,73746.0,-2.11,-33.03,-33.31,0,*62
1491087924.12,7970,14.13,73746.5,-2.11,-32.85,-33.15,0,*63
1491087925.35,7971,14.13,73754.3,-2.11,-33.03,-33.21,0,*6A
1491087926.57,7972,14.13,73750.3,-2.09,-32.97,-33.21,0,*6C
1491087927.79,7973,14.13,73754.5,-2.09,-32.97,-33.03,0,*6D
1491087929.04,7974,14.13,73748.5,-2.11,-32.97,-33.15,0,*64
1491087930.26,7975,14.13,73754.8,-2.09,-32.97,-33.15,0,*6C
1491087931.49,7976,14.13,73752.3,-2.09,-32.79,-33.15,0,*6F
1491087932.74,7977,14.13,73754.5,-2.11,-32.57,-32.79,0,*60
1491087933.97,7978,14.13,73756.3,-2.09,-32.63,-32.69,0,*60
1491087935.22,7979,14.13,73758.5,-2.09,-32.79,-32.97,0,*6B
1491087936.47,7980,14.13,73758.8,-2.09,-32.85,-32.97,0,*6E
1491087937.72,7981,14.13,73760.3,-2.09,-32.79,-32.97,0,*6C
1491087938.94,7982,14.13,73756.0,-2.09,-32.97,-33.03,0,*63
1491087940.17,7983,14.13,73762.0,-2.09,-32.85,-33.03,0,*61
1491087941.36,7984,14.13,73758.0,-2.09,-33.03,-33.21,0,*69
1491087942.61,7985,14.13,73758.8,-2.11,-33.15,-33.31,0,*67
1491087943.83,7986,14.13,73762.8,-2.09,-33.15,-33.31,0,*6D
1491087945.06,7987,14.13,73766.8,-2.09,-33.15,-33.31,0,*6C
1491087946.28,7988,14.13,73768.0,-2.09,-33.21,-33.49,0,*6B
1491087947.48,7989,14.13,73760.3,-2.09,-33.21,-33.55,0,*67
1491087948.7,7990,14.13,73762.5,-2.11,-33.21,-33.55,0,*66
1491087949.91,7991,14.13,73760.5,-2.09,-33.21,-33.37,0,*6A
1491087951.1,7992,14.13,73762.3,-2.09,-33.21,-33.55,0,*6D
1491087952.33,7993,14.13,73762.0,-2.09,-33.37,-33.73,0,*6F
1491087953.58,7994,14.13,73762.0,-2.11,-33.31,-33.55,0,*63
1491087954.81,7995,14.13,73760.5,-2.11,-33.21,-33.55,0,*63
1491087956.03,7996,14.13,73770.5,-2.09,-33.15,-33.49,0,*63
1491087957.25,7997,14.13,73760.5,-2.11,-33.15,-33.55,0,*66
1491087958.49,7998,14.13,73764.3,-2.11,-33.15,-33.49,0,*64
1491087959.78,7999,14.13,73762.5,-2.11,-32.79,-32.85,0,*6F
1491087961.05,8000,14.13,73760.5,-2.11,-32.85,-32.97,0,*69
1491087962.25,8001,14.13,73764.0,-2.09,-33.03,-33.21,0,*62
1491087963.45,8002,14.13,73766.0,-2.09,-33.15,-33.37,0,*61
1491087964.7,8003,14.13,73762.0,-2.11,-33.03,-33.31,0,*68
1491087965.95,8004,14.13,73754.8,-2.11,-32.97,-33.15,0,*65
1491087967.17,8005,14.13,73756.8,-2.11,-33.03,-33.21,0,*6F
1491087968.38,8006,14.13,73764.0,-2.09,-33.03,-33.37,0,*62
1491087969.62,8007,14.13,73758.0,-2.11,-33.15,-33.49,0,*64
1491087970.84,8008,14.13,73752.0,-2.09,-32.97,-33.15,0,*60
1491087972.07,8009,14.13,73758.8,-2.09,-32.85,-33.21,0,*65
1491087973.32,8010,14.13,73752.3,-2.09,-33.31,-33.49,0,*6D
1491087974.6,8011,14.13,73748.0,-2.11,-33.31,-33.49,0,*65
1491087975.85,8012,14.13,73748.5,-2.11,-33.31,-33.55,0,*6B
1491087977.08,8013,14.13,73760.8,-2.11,-33.21,-33.37,0,*6F
1491087978.3,8014,14.13,73752.8,-2.09,-33.15,-33.31,0,*60
1491087979.55,8015,14.13,73748.8,-2.11,-33.03,-33.31,0,*6F
1491087980.78,8016,14.13,73746.3,-2.11,-33.03,-33.37,0,*6A
1491087982.01,8017,14.13,73754.0,-2.11,-33.15,-33.37,0,*6C
1491087983.23,8018,14.13,73756.0,-2.11,-33.15,-33.37,0,*63
1491087984.48,8019,14.13,73750.5,-2.11,-33.15,-33.31,0,*64
1491087985.7,8020,14.13,73754.8,-2.11,-33.15,-33.21,0,*6F
1491087986.93,8021,14.13,73750.5,-2.11,-33.03,-33.21,0,*69
1491087988.15,8022,14.13,73754.3,-2.11,-33.03,-33.21,0,*6A
1491087989.41,8023,14.13,73754.5,-2.11,-33.03,-33.31,0,*6A
1491087990.65,8024,14.13,73760.3,-2.11,-33.15,-33.31,0,*6A
1491087991.9,8025,14.13,73756.8,-2.11,-33.15,-33.49,0,*64
1491087993.13,8026,14.13,73758.3,-2.11,-33.15,-33.37,0,*6E
1491087994.36,8027,14.13,73756.8,-2.15,-33.31,-33.67,0,*68
1491087995.61,8028,14.13,73756.3,-2.13,-33.27,-33.55,0,*67
1491087996.83,8029,14.13,73756.8,-2.13,-33.21,-33.55,0,*60
1491087998.1,8030,14.13,73756.3,-2.13,-33.27,-33.61,0,*69
1491087999.32,8031,14.13,73760.3,-2.13,-33.21,-33.55,0,*69
1491088000.57,8032,14.13,73764.0,-2.15,-33.27,-33.61,0,*6D
1491088001.82,8033,14.13,73764.0,-2.15,-33.43,-33.77,0,*69
1491088003.07,8034,14.13,73764.3,-2.13,-33.37,-33.73,0,*6F
1491088004.34,8035,14.13,73760.5,-2.13,-33.27,-33.61,0,*6C
1491088005.59,8036,14.13,73760.3,-2.15,-33.27,-33.61,0,*69
1491088006.82,8037,14.13,73762.0,-2.15,-33.31,-33.67,0,*69
1491088008.07,8038,14.13,73758.0,-2.13,-33.21,-33.61,0,*67
1491088009.32,8039,14.13,73754.3,-2.15,-33.27,-33.61,0,*66
1491088010.54,8040,14.13,73756.0,-2.13,-33.21,-33.55,0,*6F
1491088011.79,8041,14.13,73758.8,-2.15,-33.27,-33.61,0,*69
1491088013.04,8042,14.13,73758.0,-2.15,-33.31,-33.61,0,*6D
1491088014.29,8043,14.13,73752.5,-2.17,-33.31,-33.67,0,*68
1491088015.56,8044,14.13,73754.8,-2.17,-33.43,-33.77,0,*6B
1491088016.83,8045,14.13,73758.3,-2.17,-33.31,-33.61,0,*68
1491088018.1,8046,14.13,73756.5,-2.17,-33.27,-33.61,0,*6C
1491088019.37,8047,14.13,73758.8,-2.17,-33.27,-33.61,0,*6D
1491088020.64,8048,14.13,73756.0,-2.17,-33.27,-33.61,0,*62
1491088021.89,8049,14.13,73752.5,-2.17,-33.15,-33.43,0,*62
1491088023.16,8050,14.13,73750.0,-2.17,-33.09,-33.31,0,*62
1491088024.36,8051,14.13,73752.5,-2.15,-32.91,-33.15,0,*67
1491088025.6,8052,14.13,73752.0,-2.15,-32.75,-32.91,0,*63
1491088026.8,8053,14.13,73748.0,-2.15,-32.57,-32.57,0,*68
1491088028.04,8054,14.13,73748.8,-2.15,-32.69,-32.79,0,*6E
1491088029.26,8055,14.13,73748.0,-2.15,-32.97,-33.15,0,*65
1491088030.52,8056,14.13,73744.8,-2.15,-32.79,-33.09,0,*6B
1491088031.77,8057,14.13,73756.3,-2.15,-33.27,-33.49,0,*64
1491088033.02,8058,14.13,73746.0,-2.15,-33.27,-33.49,0,*6B
1491088034.25,8059,14.13,73746.5,-2.15,-33.15,-33.43,0,*61
1491088035.51,8060,14.13,73752.3,-2.15,-33.27,-33.49,0,*60
1491088036.77,8061,14.13,73746.3,-2.15,-33.09,-33.27,0,*65
1491088038.0,8062,14.13,73746.3,-2.15,-32.91,-33.27,0,*66
1491088039.22,8063,14.13,73746.8,-2.15,-32.91,-33.09,0,*6B
1491088040.43,8064,14.13,73740.8,-2.15,-32.69,-32.91,0,*6B
1491088041.69,8065,14.13,73746.0,-2.15,-33.09,-33.31,0,*66
1491088042.97,8066,14.13,73746.3,-2.13,-32.85,-33.09,0,*6D
1491088044.19,8067,14.13,73746.0,-2.15,-32.97,-33.15,0,*64
1491088045.47,8068,14.13,73744.5,-2.13,-33.09,-33.27,0,*6A
1491088046.73,8069,14.13,73746.3,-2.15,-32.97,-33.27,0,*6B
1491088047.95,8070,14.13,73748.3,-2.15,-33.15,-33.49,0,*60
1491088049.21,8071,14.13,73748.8,-2.15,-32.97,-33.31,0,*65
1491088050.46,8072,14.13,73754.0,-2.15,-33.09,-33.09,0,*6B
1491088051.69,8073,14.13,73754.8,-2.15,-33.15,-33.31,0,*6C
1491088052.97,8074,14.13,73754.3,-2.13,-33.09,-33.31,0,*60
1491088054.25,8075,14.13,73758.8,-2.13,-33.09,-33.27,0,*66
1491088055.51,8076,14.13,73760.8,-2.17,-33.27,-33.61,0,*6F
1491088056.76,8077,14.13,73758.0,-2.17,-33.43,-33.67,0,*6A
1491088058.01,8078,14.13,73760.8,-2.15,-33.27,-33.61,0,*63
1491088059.27,8079,14.13,73756.5,-2.15,-33.09,-33.27,0,*6C
1491088060.5,8080,14.13,73762.5,-2.15,-33.15,-33.49,0,*6F
1491088061.73,8081,14.13,73766.0,-2.15,-33.43,-33.67,0,*61
1491088062.98,8082,14.13,73764.8,-2.15,-33.31,-33.49,0,*6B
1491088064.25,8083,14.13,73764.3,-2.17,-33.27,-33.61,0,*65
1491088065.52,8084,14.13,73766.0,-2.17,-33.43,-33.61,0,*60
1491088066.75,8085,14.13,73768.8,-2.19,-33.31,-33.37,0,*69
1491088068.0,8086,14.13,73772.5,-2.19,-33.49,-33.73,0,*65
1491088069.26,8087,14.13,73768.3,-2.17,-33.27,-33.61,0,*61
1491088070.54,8088,14.13,73762.8,-2.17,-33.27,-33.43,0,*6E
1491088071.77,8089,14.13,73760.0,-2.19,-33.21,-33.49,0,*6D
1491088073.02,8090,14.13,73766.8,-2.17,-33.31,-33.67,0,*66
1491088074.29,8091,14.13,73764.8,-2.17,-33.49,-33.61,0,*6E
1491088075.54,8092,14.13,73764.3,-2.19,-33.49,-33.73,0,*60
1491088076.79,8093,14.13,73770.3,-2.17,-33.49,-33.83,0,*60
1491088078.01,8094,14.13,73774.3,-2.19,-33.67,-33.89,0,*6F
1491088079.24,8095,14.13,73772.0,-2.19,-33.49,-33.83,0,*68
1491088080.49,8096,14.13,73770.0,-2.19,-33.31,-33.49,0,*62
1491088081.71,8097,14.13,73766.3,-2.19,-33.21,-33.31,0,*6D
1491088082.93,8098,14.13,73758.0,-2.19,-33.21,-33.49,0,*6D
1491088084.16,8099,14.13,73756.8,-2.19,-33.09,-33.37,0,*6F
1491088085.42,8100,14.13,73756.0,-2.21,-33.21,-33.31,0,*69
1491088086.67,8101,14.13,73756.5,-2.21,-32.97,-33.15,0,*62
1491088087.89,8102,14.13,73760.5,-2.19,-32.85,-33.15,0,*69
1491088089.11,8103,14.13,73774.3,-2.19,-32.85,-33.03,0,*6F
1491088090.39,8104,14.13,73770.5,-2.17,-33.09,-33.27,0,*65
1491088091.62,8105,14.13,73764.3,-2.19,-32.85,-33.21,0,*69
1491088092.84,8106,14.13,73760.5,-2.19,-32.97,-33.03,0,*69
1491088094.09,8107,14.13,73752.8,-2.17,-32.57,-32.79,0,*66
1491088095.35,8108,14.13,73756.8,-2.17,-32.79,-32.91,0,*63
1491088096.58,8109,14.13,73758.5,-2.17,-32.57,-32.69,0,*69
1491088097.79,8110,14.13,73770.5,-2.17,-32.51,-32.57,0,*6A
1491088099.05,8111,14.13,73770.8,-2.19,-32.79,-32.85,0,*60
1491088100.33,8112,14.13,73770.3,-2.17,-33.09,-33.31,0,*65
1491088101.55,8113,14.13,73774.5,-2.19,-33.03,-33.31,0,*60
1491088102.78,8114,14.13,73764.8,-2.19,-32.57,-32.75,0,*66
1491088104.03,8115,14.13,73764.3,-2.17,-32.19,-32.35,0,*67
1491088105.25,8116,14.13,73762.5,-2.17,-32.23,-32.35,0,*6D